�������l�o���
Date,Time,MP-1(��Sv/h),MP-2(��Sv/h),MP-3(��Sv/h),MP-4(��Sv/h),MP-5(��Sv/h),MP-6(��Sv/h),MP-7(��Sv/h),MP-8(��Sv/h),����,����(m/s),���J
2023/01/03,00:00,0.567,0.820,0.512,1.050,0.726,0.323,0.584,0.555,��,1.6,��
2023/01/03,00:10,0.565,0.819,0.513,1.051,0.726,0.321,0.583,0.554,��,3.8,��
2023/01/03,00:20,0.564,0.820,0.512,1.052,0.727,0.322,0.583,0.554,�쐼,4.1,��
2023/01/03,00:30,0.564,0.820,0.513,1.050,0.726,0.323,0.583,0.554,���쐼,4.9,��
2023/01/03,00:40,0.566,0.819,0.513,1.052,0.726,0.323,0.583,0.555,���쐼,6.4,��
2023/01/03,00:50,0.565,0.818,0.514,1.052,0.726,0.322,0.584,0.555,���k��,6.0,��
2023/01/03,01:00,0.564,0.819,0.513,1.052,0.725,0.323,0.584,0.556,��,4.1,��
2023/01/03,01:10,0.565,0.819,0.514,1.051,0.725,0.322,0.584,0.555,���쐼,2.8,��
2023/01/03,01:20,0.564,0.820,0.513,1.052,0.725,0.322,0.585,0.555,���쐼,2.2,��
2023/01/03,01:30,0.567,0.820,0.512,1.050,0.724,0.323,0.583,0.555,���쐼,3.0,��
2023/01/03,01:40,0.567,0.819,0.513,1.052,0.726,0.323,0.583,0.554,�쐼,3.1,��
2023/01/03,01:50,0.564,0.819,0.514,1.053,0.725,0.321,0.583,0.555,��쐼,3.4,��
2023/01/03,02:00,0.566,0.819,0.513,1.051,0.724,0.324,0.584,0.555,��쐼,3.0,��
2023/01/03,02:10,0.564,0.818,0.514,1.049,0.724,0.322,0.584,0.554,��쐼,2.2,��
2023/01/03,02:20,0.565,0.820,0.514,1.049,0.724,0.322,0.584,0.555,�쐼,1.9,��
2023/01/03,02:30,0.565,0.820,0.514,1.050,0.725,0.323,0.582,0.555,��쐼,2.6,��
2023/01/03,02:40,0.565,0.819,0.513,1.052,0.724,0.322,0.584,0.556,��쐼,3.0,��
2023/01/03,02:50,0.566,0.820,0.515,1.050,0.724,0.323,0.583,0.554,��쐼,2.5,��
2023/01/03,03:00,0.564,0.821,0.512,1.052,0.725,0.322,0.584,0.555,��,3.2,��
2023/01/03,03:10,0.564,0.821,0.514,1.050,0.723,0.322,0.582,0.556,��,2.3,��
2023/01/03,03:20,0.564,0.820,0.513,1.051,0.725,0.322,0.583,0.555,��,1.8,��
2023/01/03,03:30,0.566,0.821,0.513,1.050,0.724,0.322,0.583,0.556,��,0.8,��
2023/01/03,03:40,0.566,0.821,0.513,1.050,0.723,0.323,0.584,0.556,�쐼,0.7,��
2023/01/03,03:50,0.564,0.821,0.514,1.053,0.723,0.322,0.583,0.555,���쐼,1.5,��
2023/01/03,04:00,0.565,0.819,0.512,1.052,0.725,0.323,0.583,0.555,���k��,2.1,��
2023/01/03,04:10,0.563,0.821,0.513,1.051,0.724,0.324,0.584,0.556,�k��,1.9,��
2023/01/03,04:20,0.565,0.820,0.514,1.049,0.724,0.322,0.583,0.554,���k��,0.9,��
2023/01/03,04:30,0.565,0.819,0.514,1.051,0.724,0.322,0.584,0.555,���쐼,2.1,��
2023/01/03,04:40,0.565,0.817,0.513,1.049,0.723,0.322,0.583,0.555,��쐼,2.6,��
2023/01/03,04:50,0.566,0.819,0.513,1.053,0.725,0.322,0.585,0.555,�쐼,3.0,��
2023/01/03,05:00,0.565,0.820,0.512,1.051,0.724,0.323,0.584,0.555,��,3.5,��
2023/01/03,05:10,0.565,0.820,0.513,1.051,0.725,0.322,0.583,0.557,��쐼,4.6,��
2023/01/03,05:20,0.565,0.819,0.513,1.050,0.723,0.322,0.583,0.556,���쐼,2.1,��
2023/01/03,05:30,0.565,0.819,0.513,1.050,0.722,0.321,0.583,0.555,��,1.3,��
2023/01/03,05:40,0.565,0.822,0.512,1.053,0.725,0.322,0.585,0.555,�k��,2.6,��
2023/01/03,05:50,0.566,0.819,0.513,1.053,0.725,0.323,0.585,0.556,�쓌,0.7,��
2023/01/03,06:00,0.566,0.817,0.513,1.051,0.724,0.323,0.584,0.555,�k,0.9,��
2023/01/03,06:10,0.564,0.819,0.512,1.050,0.723,0.323,0.584,0.555,�k�k��,0.6,��
2023/01/03,06:20,0.565,0.821,0.513,1.052,0.721,0.324,0.584,0.555,��쓌,0.6,��
2023/01/03,06:30,0.566,0.819,0.512,1.052,0.724,0.322,0.584,0.554,��쐼,1.8,��
2023/01/03,06:40,0.566,0.818,0.514,1.051,0.724,0.324,0.585,0.556,��쐼,2.6,��
2023/01/03,06:50,0.565,0.818,0.511,1.052,0.723,0.322,0.583,0.554,��,3.3,��
2023/01/03,07:00,0.565,0.818,0.514,1.051,0.722,0.322,0.584,0.557,��,4.9,��
2023/01/03,07:10,0.565,0.820,0.513,1.051,0.725,0.323,0.582,0.554,��,6.0,��
2023/01/03,07:20,0.566,0.819,0.513,1.052,0.723,0.322,0.584,0.556,��,3.8,��
2023/01/03,07:30,0.564,0.819,0.512,1.051,0.725,0.323,0.585,0.554,��,3.0,��
2023/01/03,07:40,0.566,0.821,0.514,1.053,0.724,0.323,0.585,0.554,��,3.3,��
2023/01/03,07:50,0.565,0.818,0.513,1.052,0.723,0.323,0.585,0.556,��쐼,2.8,��
2023/01/03,08:00,0.567,0.821,0.513,1.051,0.722,0.323,0.584,0.556,��쐼,1.3,��
2023/01/03,08:10,0.565,0.819,0.513,1.052,0.723,0.323,0.584,0.556,��,3.2,��
2023/01/03,08:20,0.566,0.819,0.512,1.053,0.722,0.323,0.586,0.556,��쐼,2.8,��
2023/01/03,08:30,0.566,0.821,0.514,1.052,0.722,0.323,0.586,0.555,��쐼,2.2,��
2023/01/03,08:40,0.565,0.820,0.513,1.051,0.724,0.322,0.586,0.555,��,2.4,��
2023/01/03,08:50,0.568,0.819,0.513,1.050,0.722,0.324,0.584,0.556,�쐼,2.1,��
2023/01/03,09:00,0.568,0.820,0.514,1.051,0.724,0.322,0.585,0.554,-,CALM,��
2023/01/03,09:10,0.568,0.821,0.515,1.054,0.724,0.324,0.585,0.555,��쐼,2.3,��
2023/01/03,09:20,0.567,0.822,0.515,1.053,0.726,0.324,0.587,0.557,���k��,1.0,��
2023/01/03,09:30,0.567,0.821,0.515,1.051,0.724,0.324,0.587,0.557,���쐼,0.9,��
2023/01/03,09:40,0.567,0.823,0.514,1.051,0.725,0.323,0.586,0.557,��,1.2,��
2023/01/03,09:50,0.569,0.821,0.514,1.051,0.725,0.322,0.586,0.557,��쐼,1.6,��
2023/01/03,10:00,0.567,0.820,0.514,1.052,0.723,0.324,0.583,0.557,��쐼,1.4,��
2023/01/03,10:10,0.566,0.820,0.515,1.051,0.724,0.325,0.584,0.557,���쐼,2.5,��
2023/01/03,10:20,0.568,0.817,0.515,1.051,0.724,0.323,0.585,0.557,���k��,2.4,��
2023/01/03,10:30,0.567,0.818,0.513,1.051,0.725,0.323,0.582,0.555,���k��,4.5,��
2023/01/03,10:40,0.566,0.820,0.514,1.052,0.725,0.324,0.584,0.557,��,7.8,��
2023/01/03,10:50,0.567,0.821,0.514,1.053,0.726,0.325,0.584,0.556,���k��,7.1,��
2023/01/03,11:00,0.568,0.820,0.515,1.052,0.726,0.324,0.585,0.557,�k�k��,5.0,��
2023/01/03,11:10,0.568,0.820,0.515,1.052,0.727,0.325,0.584,0.556,�k�k��,4.4,��
2023/01/03,11:20,0.571,0.820,0.514,1.052,0.727,0.324,0.585,0.557,�k�k��,2.8,��
2023/01/03,11:30,0.569,0.817,0.515,1.054,0.726,0.323,0.584,0.558,�k��,3.8,��
2023/01/03,11:40,0.569,0.818,0.515,1.053,0.727,0.324,0.583,0.556,�k��,4.1,��
2023/01/03,11:50,0.570,0.821,0.515,1.053,0.727,0.323,0.585,0.556,�k��,2.7,��
2023/01/03,12:00,0.569,0.821,0.516,1.052,0.727,0.324,0.585,0.558,�k�k��,1.5,��
2023/01/03,12:10,0.568,0.820,0.515,1.052,0.727,0.324,0.586,0.557,�k�k��,1.4,��
2023/01/03,12:20,0.569,0.821,0.516,1.054,0.728,0.324,0.584,0.557,��,1.6,��
2023/01/03,12:30,0.571,0.823,0.517,1.054,0.725,0.324,0.586,0.557,���k��,2.5,��
2023/01/03,12:40,0.571,0.822,0.517,1.055,0.726,0.324,0.585,0.557,��,3.0,��
2023/01/03,12:50,0.570,0.823,0.517,1.054,0.728,0.325,0.587,0.557,��,2.2,��
2023/01/03,13:00,0.570,0.822,0.517,1.054,0.728,0.326,0.587,0.557,���k��,2.0,��
2023/01/03,13:10,0.570,0.822,0.518,1.054,0.731,0.326,0.586,0.558,�k�k��,0.9,��
2023/01/03,13:20,0.569,0.825,0.516,1.053,0.728,0.325,0.586,0.557,-,CALM,��
2023/01/03,13:30,0.570,0.823,0.517,1.053,0.729,0.325,0.587,0.558,�쐼,1.8,��
2023/01/03,13:40,0.570,0.823,0.517,1.054,0.728,0.326,0.585,0.560,�k��,3.5,��
2023/01/03,13:50,0.569,0.822,0.517,1.055,0.729,0.326,0.585,0.557,�k��,3.0,��
2023/01/03,14:00,0.570,0.821,0.518,1.053,0.730,0.325,0.586,0.556,��,4.4,��
2023/01/03,14:10,0.570,0.820,0.516,1.053,0.727,0.325,0.587,0.556,���k��,5.2,��
2023/01/03,14:20,0.570,0.821,0.517,1.052,0.730,0.324,0.587,0.557,�k��,4.7,��
2023/01/03,14:30,0.569,0.820,0.516,1.054,0.728,0.325,0.588,0.555,��,6.6,��
2023/01/03,14:40,0.569,0.822,0.515,1.054,0.727,0.324,0.588,0.558,��,5.6,��
2023/01/03,14:50,0.570,0.823,0.516,1.054,0.727,0.324,0.588,0.557,��,4.5,��
2023/01/03,15:00,0.570,0.822,0.516,1.054,0.730,0.325,0.588,0.557,���k��,4.9,��
2023/01/03,15:10,0.569,0.822,0.518,1.055,0.728,0.324,0.589,0.557,��,5.2,��
2023/01/03,15:20,0.569,0.824,0.517,1.054,0.727,0.325,0.588,0.558,��,3.8,��
2023/01/03,15:30,0.569,0.823,0.516,1.055,0.728,0.325,0.588,0.558,��,4.7,��
2023/01/03,15:40,0.568,0.823,0.516,1.053,0.727,0.326,0.588,0.558,��,4.5,��
2023/01/03,15:50,0.569,0.824,0.517,1.054,0.728,0.324,0.586,0.559,��,4.7,��
2023/01/03,16:00,0.568,0.822,0.517,1.056,0.728,0.325,0.589,0.559,��,3.4,��
2023/01/03,16:10,0.568,0.825,0.516,1.056,0.728,0.325,0.589,0.559,��,4.5,��
2023/01/03,16:20,0.569,0.825,0.516,1.054,0.727,0.324,0.587,0.557,��,2.3,��
2023/01/03,16:30,0.567,0.821,0.515,1.054,0.727,0.325,0.587,0.558,���k��,3.0,��
2023/01/03,16:40,0.568,0.823,0.517,1.055,0.727,0.324,0.586,0.558,���k��,4.2,��
2023/01/03,16:50,0.568,0.822,0.516,1.054,0.726,0.324,0.588,0.558,���k��,3.3,��
2023/01/03,17:00,0.568,0.824,0.517,1.055,0.728,0.324,0.587,0.557,���k��,3.0,��
2023/01/03,17:10,0.568,0.822,0.516,1.055,0.729,0.324,0.589,0.557,���k��,2.1,��
2023/01/03,17:20,0.570,0.825,0.517,1.055,0.727,0.323,0.587,0.556,���k��,2.8,��
2023/01/03,17:30,0.568,0.823,0.516,1.054,0.728,0.325,0.588,0.557,�k��,2.0,��
2023/01/03,17:40,0.568,0.822,0.515,1.054,0.729,0.325,0.585,0.557,�k��,3.0,��
2023/01/03,17:50,0.568,0.823,0.516,1.054,0.727,0.325,0.588,0.556,�k��,2.6,��
2023/01/03,18:00,0.570,0.822,0.515,1.054,0.727,0.324,0.586,0.558,���k��,3.1,��
2023/01/03,18:10,0.571,0.823,0.515,1.054,0.727,0.324,0.588,0.557,���k��,3.5,��
2023/01/03,18:20,0.568,0.823,0.516,1.054,0.726,0.323,0.587,0.558,���k��,3.8,��
2023/01/03,18:30,0.566,0.822,0.516,1.053,0.727,0.323,0.588,0.558,�k��,3.6,��
2023/01/03,18:40,0.568,0.822,0.515,1.055,0.728,0.325,0.586,0.555,��,2.0,��
2023/01/03,18:50,0.567,0.822,0.514,1.056,0.727,0.323,0.587,0.557,���쐼,2.0,��
2023/01/03,19:00,0.567,0.822,0.515,1.052,0.726,0.324,0.587,0.558,��,5.2,��
2023/01/03,19:10,0.567,0.822,0.513,1.053,0.728,0.325,0.587,0.555,��,7.2,��
2023/01/03,19:20,0.566,0.821,0.514,1.055,0.728,0.323,0.586,0.556,�k��,4.9,��
2023/01/03,19:30,0.567,0.820,0.515,1.056,0.728,0.325,0.586,0.557,��,5.5,��
2023/01/03,19:40,0.568,0.821,0.514,1.055,0.728,0.323,0.588,0.557,�k��,3.8,��
2023/01/03,19:50,0.567,0.821,0.515,1.052,0.726,0.325,0.586,0.557,���k��,4.5,��
2023/01/03,20:00,0.566,0.822,0.514,1.056,0.728,0.324,0.585,0.557,���k��,4.2,��
2023/01/03,20:10,0.567,0.822,0.515,1.054,0.727,0.324,0.585,0.558,���k��,6.1,��
2023/01/03,20:20,0.565,0.821,0.514,1.053,0.730,0.325,0.587,0.556,���k��,5.0,��
2023/01/03,20:30,0.568,0.820,0.514,1.055,0.728,0.323,0.586,0.556,���k��,3.2,��
2023/01/03,20:40,0.567,0.822,0.514,1.053,0.726,0.324,0.586,0.555,�k��,2.0,��
2023/01/03,20:50,0.567,0.822,0.514,1.053,0.727,0.322,0.584,0.556,�k�k��,1.0,��
2023/01/03,21:00,0.567,0.823,0.515,1.053,0.728,0.323,0.586,0.558,�k�k��,1.5,��
2023/01/03,21:10,0.568,0.821,0.514,1.055,0.728,0.323,0.586,0.555,���쐼,2.0,��
2023/01/03,21:20,0.567,0.820,0.515,1.054,0.726,0.324,0.586,0.558,���k��,1.3,��
2023/01/03,21:30,0.568,0.823,0.513,1.052,0.725,0.323,0.586,0.557,���k��,2.3,��
2023/01/03,21:40,0.567,0.822,0.515,1.053,0.727,0.322,0.586,0.557,�k��,3.1,��
2023/01/03,21:50,0.567,0.821,0.514,1.054,0.725,0.323,0.587,0.558,�k��,2.4,��
2023/01/03,22:00,0.565,0.821,0.514,1.053,0.726,0.323,0.585,0.557,��,2.8,��
2023/01/03,22:10,0.566,0.820,0.513,1.052,0.727,0.323,0.586,0.556,�k��,2.2,��
2023/01/03,22:20,0.566,0.821,0.515,1.052,0.728,0.323,0.584,0.556,�k��,1.3,��
2023/01/03,22:30,0.568,0.820,0.515,1.051,0.727,0.322,0.585,0.556,���k��,3.1,��
2023/01/03,22:40,0.566,0.822,0.514,1.053,0.728,0.324,0.586,0.557,���k��,2.6,��
2023/01/03,22:50,0.566,0.820,0.514,1.053,0.724,0.322,0.585,0.556,�k��,2.5,��
2023/01/03,23:00,0.568,0.820,0.514,1.053,0.724,0.324,0.585,0.558,��,1.7,��
2023/01/03,23:10,0.566,0.823,0.514,1.053,0.727,0.323,0.586,0.557,��,2.2,��
2023/01/03,23:20,0.565,0.820,0.514,1.054,0.726,0.323,0.585,0.555,���쐼,3.1,��
2023/01/03,23:30,0.566,0.820,0.515,1.052,0.727,0.323,0.584,0.556,��,3.9,��
2023/01/03,23:40,0.567,0.821,0.514,1.055,0.725,0.324,0.583,0.556,���쐼,4.2,��
2023/01/03,23:50,0.566,0.821,0.514,1.052,0.727,0.323,0.585,0.556,���쐼,3.3,��
